CZ-3B DEB, 40181

Orbit data source: Space-Track

CZ-3B DEB, 40181 is space debris in HEO originally from a launch on Mon, 19 Dec 2011 UTC launched from the Xichang Space Center, China (XSC). Debris objects in space refer to the collection of defunct objects orbiting the Earth. Examples of debris include non-operational satellites, rocket bodies, and fragments generated from explosions, collisions, or faulty payload assembly.

Loading next visibility...
Identifier
40181, 2011-077E
Orbit
HEO
Country
Flag of CNCN / PRC
Related business
Manufacturer
CALT
Mission
Spacecraft
Bus & Motor
Unknown
Mass
Unknown
Launch date (UTC)
2011-12-19 (15 years ago)
Launch vehicle
Unknown
Launch site
Xichang Space Center, China (XSC)
Object type
Payload
Rocket body
Debris
Shape & HBR
Unknown shape, 0.2 m
Radar Cross Section
Medium (>0.1 m² and <1 m²)

Expand to show TLE details & history
Last TLE update: 2 months ago

TLE from 2 months ago
0 CZ-3B DEB
1 40181U 11077E   26114.28952368  .00002091  00000-0  19384-2 0  9996
2 40181  21.2654 193.6837 7477112  88.7547 347.1335  2.00669968 14750
Epoch: 2026-04-24T06:56Z
TLE epoch observation values (Epoch: 2026-04-24T06:56:54.845Z)
Latitude
0.00006°
Longitude
-122.76312°
Altitude
5,137.02 km
Speed
7.363 km/s
True Right ascension
12h 55m 09s
True Declination
0° 00' 00"
Sunlit
Object was in full shadow at epoch
Visualization orbit readout
Latitude
Unknown
Longitude
Unknown
Altitude
Unknown
Speed
Unknown
Apparent Right ascension
Unknown
Apparent Declination
Unknown
Sunlit
N/A
Visualization observer readout
Local Sidereal Time
23:27:07
Azimuth
Unknown
Elevation
Unknown
Doppler factor
Unknown
Orbital elements
Apogee altitude
40,033.253 km
Perigee altitude
321.525 km
Semi-major axis
26,555.526 km
Eccentricity
0.74771
Inclination
21.2654°
RAAN
193.6837°
Arg. of periapsis
88.7547°
True anomaly
271.01658°
Mean anomaly
347.1335°
Eccentric anomaly
319.0631°
Mean motion
0.50155 °/min
Orbital period
717.78 mins
BSTAR
0.0019384
Loading maneuver chart data...
Computing Atmospheric mass density...
Loading historical data...
Loading historical data...
Loading historical data...
Loading historical data...
Loading historical data...
Loading historical data...
Loading historical data...

Documentation

Showing up to 5 results
|